Regional Weather Roundup
Issued by NWS Burlington, VT

Current Version | Previous Version | Text Only | Print | Product List | Glossary Off
Versions: 1 2 3 4 5 6 7 8 9 10 11 12 13 14 15 16 17 18 19 20 21 22 23 24 25 26 27 28 29 30 31 32 33 34 35 36 37 38 39 40 41 42 43 44 45 46 47 48 49 50

000
ASUS41 KBTV 281830
RWRBTV
VERMONT REGIONAL WEATHER ROUNDUP
NATIONAL WEATHER SERVICE BURLINGTON VT
200 PM EDT THU APR 28 2016

NOTE: "FAIR" INDICATES FEW OR NO CLOUDS BELOW 12,000 FEET WITH NO
SIGNIFICANT WEATHER AND/OR OBSTRUCTIONS TO VISIBILITY.

* THESE REPORTS ARE NOT UNDER NWS QUALITY CONTROL AND/OR DO NOT
  REPORT WEATHER SUCH AS PRECIPITATION AND FOG.

VTZ001>019-281900-
_____VERMONT_____


CITY           SKY/WX    TMP DP  RH WIND       PRES   REMARKS
BURLINGTON     FAIR      44  19  36 N13G18    30.10F
6HR MIN TEMP:  35; 6HR MAX TEMP:  45;

MONTPELIER     FAIR      45  17  32 NW12G17   30.09S
6HR MIN TEMP:  31; 6HR MAX TEMP:  45;

MORRISVILLE    LGT RAIN  44  18  35 N17       30.08F
6HR MIN TEMP:  31; 6HR MAX TEMP:  44; 6HR PCP: TRACE;

ST. JOHNSBURY*   N/A     47  15  27 MISG      30.04F
6HR MIN TEMP:  31; 6HR MAX TEMP:  48;

LYNDONVILLE*   FAIR      43  17  35 SW7       30.05F
6HR MIN TEMP:  31; 6HR MAX TEMP:  43;

MIDDLEBURY*    FAIR      46  21  36 N7        30.07F
6HR MIN TEMP:  36; 6HR MAX TEMP:  47;

RUTLAND*         N/A    N/A N/A N/A MISG        N/A
SPRINGFIELD    FAIR      54  15  21 W8        30.03F
6HR MIN TEMP:  35; 6HR MAX TEMP:  55;

HIGHGATE*      FAIR      41  17  36 N9        30.13F
6HR MIN TEMP:  32; 6HR MAX TEMP:  41;

NEWPORT*       FAIR      39  18  43 NE10      30.08F
6HR MIN TEMP:  28; 6HR MAX TEMP:  39;

BENNINGTON     FAIR      53  19  26 SW3       30.02F
6HR MIN TEMP:  40; 6HR MAX TEMP:  54;

MT. MANSFIELD*   N/A     30 N/A N/A NW12        N/A  WCI  21

_____LAKE CHAMPLAIN_____


CITY           SKY/WX    TMP DP  RH WIND       PRES   REMARKS
COLCHESTER RF*   N/A     36  21  55 NE15        N/A  WCI  26
DIAMOND ISL*     N/A     37  23  56 N15         N/A  WCI  28

$$

NYZ007-026>031-035-052-083-087-281900-
_____NORTHERN NEW YORK_____


CITY           SKY/WX    TMP DP  RH WIND       PRES   REMARKS
PLATTSBURGH    SUNNY     42  20  41 NE9       30.12F
6HR MIN TEMP:  35; 6HR MAX TEMP:  42;

SARANAC LAKE   SUNNY     45  14  28 N5        30.01F
6HR MIN TEMP:  30; 6HR MAX TEMP:  45;

MASSENA        SUNNY     45  16  31 NE10G16   30.12F
6HR MIN TEMP:  34; 6HR MAX TEMP:  47;

OGDENSBURG*    SUNNY     46  21  36 N9        30.10F
POTSDAM*       SUNNY     43  19  39 N9        30.09
WATERTOWN      SUNNY     50  24  36 E15       30.08F
6HR MIN TEMP:  36; 6HR MAX TEMP:  51;

FT DRUM        MOSUNNY   48  21  34 E5        30.06F
6HR MIN TEMP:  35; 6HR MAX TEMP:  49;

ALBANY         CLOUDY    55  20  25 NE7       30.03F
6HR MIN TEMP:  43; 6HR MAX TEMP:  56;

GLENS FALLS    SUNNY     54  23  30 E10       30.03F
6HR MIN TEMP:  40; 6HR MAX TEMP:  54;


$$
NHZ002-005-011-281900-
_____NEW HAMPSHIRE_____


CITY           SKY/WX    TMP DP  RH WIND       PRES   REMARKS
LEBANON        SUNNY     53  18  25 MISG      30.02F
6HR MIN TEMP:  34; 6HR MAX TEMP:  55;

KEENE          SUNNY     55  16  21 NE7       30.01F
6HR MIN TEMP:  36; 6HR MAX TEMP:  55;

MT WASHINGTON  MOSUNNY   16  10  79 W32         N/A  WCI  -5
6HR MIN TEMP:   7; 6HR MAX TEMP:  18;

PLYMOUTH       FAIR      51  18  26 NW8       30.01F
6HR MIN TEMP:  37; 6HR MAX TEMP:  51;

WHITEFIELD     SUNNY     44  16  32 CALM      30.04F
6HR MIN TEMP:  33; 6HR MAX TEMP:  45;


$$

_____REGIONAL QUEBEC LOCATIONS_____


CITY           SKY/WX    TMP DP  RH WIND       PRES   REMARKS
MONTREAL       MOSUNNY   41  18  38 S14       30.13F
QUEBEC CITY    MOSUNNY   37   9  30 NW9G18    30.10S WCI  31
SHERBROOKE     SUNNY     39  12  33 W16G32    30.08R WCI  30

_____REGIONAL ONTARIO LOCATIONS_____


CITY           SKY/WX    TMP DP  RH WIND       PRES   REMARKS
OTTAWA         MOSUNNY   45  18  33 NE8       30.11F

______KEY______
VSB  - VISIBILITY IN MILES
WCI  - WIND CHILL INDEX
HX   - HEAT INDEX
$$
NNNN




USA.gov is the U.S. government's official web portal to all federal, state and local government web resources and services.